Time,TemperatureF,DewpointF,PressureIn,WindDirection,WindDirectionDegrees,WindSpeedMPH,WindSpeedGustMPH,Humidity,HourlyPrecipIn,Conditions,Clouds,dailyrainin,SoftwareType,DateUTC
2013-02-14 00:00:00,32.7,30.6,29.91,West,271,0.0,0.0,92,0.00,,,0.04,Wunderground v.1.15,2013-02-14 05:00:00,
2013-02-14 00:05:00,32.8,30.7,29.92,West,271,0.0,0.0,92,0.00,,,0.00,Wunderground v.1.15,2013-02-14 05:05:00,
2013-02-14 00:10:00,32.8,30.7,29.91,West,271,0.0,0.0,92,0.00,,,0.00,Wunderground v.1.15,2013-02-14 05:10:00,
2013-02-14 00:15:00,32.7,30.6,29.92,West,271,0.0,0.0,92,0.00,,,0.00,Wunderground v.1.15,2013-02-14 05:15:00,
2013-02-14 00:20:00,32.8,30.7,29.92,West,271,0.0,1.0,92,0.00,,,0.00,Wunderground v.1.15,2013-02-14 05:20:00,
2013-02-14 00:25:00,32.8,30.7,29.92,West,271,0.0,1.0,92,0.00,,,0.00,Wunderground v.1.15,2013-02-14 05:25:00,
2013-02-14 00:30:00,32.8,30.7,29.92,West,271,0.0,0.0,92,0.00,,,0.00,Wunderground v.1.15,2013-02-14 05:30:00,
2013-02-14 00:35:00,32.8,30.7,29.92,West,276,0.0,2.0,92,0.00,,,0.00,Wunderground v.1.15,2013-02-14 05:35:00,
2013-02-14 00:40:00,32.8,30.7,29.92,WNW,284,1.0,1.0,92,0.00,,,0.00,Wunderground v.1.15,2013-02-14 05:40:00,
2013-02-14 00:45:00,32.8,30.7,29.92,WNW,284,1.0,2.0,92,0.00,,,0.00,Wunderground v.1.15,2013-02-14 05:45:00,
2013-02-14 00:50:00,32.8,30.7,29.92,WNW,284,0.0,2.0,92,0.00,,,0.00,Wunderground v.1.15,2013-02-14 05:50:00,
2013-02-14 00:55:00,32.8,30.7,29.92,WNW,284,0.0,2.0,92,0.00,,,0.00,Wunderground v.1.15,2013-02-14 05:55:00,
2013-02-14 01:00:00,32.8,30.7,29.92,WNW,284,0.0,0.0,92,0.00,,,0.00,Wunderground v.1.15,2013-02-14 06:00:00,
2013-02-14 01:06:00,32.8,30.7,29.92,WNW,284,0.0,0.0,92,0.00,,,0.00,Wunderground v.1.15,2013-02-14 06:06:00,
2013-02-14 01:10:00,32.8,30.7,29.92,WNW,284,0.0,0.0,92,0.00,,,0.00,Wunderground v.1.15,2013-02-14 06:10:00,
2013-02-14 01:15:00,32.8,30.7,29.93,WNW,284,0.0,0.0,92,0.00,,,0.00,Wunderground v.1.15,2013-02-14 06:15:00,
2013-02-14 01:20:00,32.8,30.7,29.93,WNW,284,0.0,0.0,92,0.00,,,0.00,Wunderground v.1.15,2013-02-14 06:20:00,
2013-02-14 01:25:00,32.8,30.7,29.93,WNW,284,0.0,0.0,92,0.00,,,0.00,Wunderground v.1.15,2013-02-14 06:25:00,
2013-02-14 01:30:00,32.8,30.7,29.93,WNW,284,0.0,0.0,92,0.00,,,0.00,Wunderground v.1.15,2013-02-14 06:30:00,
2013-02-14 01:35:00,32.8,31.0,29.93,West,279,0.0,0.0,93,0.00,,,0.00,Wunderground v.1.15,2013-02-14 06:35:00,
2013-02-14 01:40:00,32.9,30.8,29.93,West,279,0.0,0.0,92,0.00,,,0.00,Wunderground v.1.15,2013-02-14 06:40:00,
2013-02-14 01:45:00,32.9,30.8,29.93,West,279,0.0,0.0,92,0.00,,,0.00,Wunderground v.1.15,2013-02-14 06:45:00,
2013-02-14 01:50:00,32.9,30.8,29.93,West,279,0.0,0.0,92,0.00,,,0.00,Wunderground v.1.15,2013-02-14 06:50:00,
2013-02-14 01:55:00,32.9,30.8,29.92,West,279,0.0,0.0,92,0.00,,,0.00,Wunderground v.1.15,2013-02-14 06:55:00,
2013-02-14 02:00:00,32.9,30.8,29.93,West,279,0.0,0.0,92,0.00,,,0.00,Wunderground v.1.15,2013-02-14 07:00:00,
2013-02-14 02:05:00,32.9,30.8,29.92,West,279,0.0,0.0,92,0.00,,,0.00,Wunderground v.1.15,2013-02-14 07:05:00,
2013-02-14 02:10:00,32.9,30.8,29.93,West,279,0.0,0.0,92,0.00,,,0.00,Wunderground v.1.15,2013-02-14 07:10:00,
2013-02-14 02:15:00,32.9,30.8,29.92,West,279,0.0,0.0,92,0.00,,,0.00,Wunderground v.1.15,2013-02-14 07:15:00,
2013-02-14 02:20:00,32.9,30.8,29.93,West,279,0.0,0.0,92,0.00,,,0.00,Wunderground v.1.15,2013-02-14 07:20:00,
2013-02-14 02:25:00,32.9,30.8,29.93,West,279,0.0,0.0,92,0.00,,,0.00,Wunderground v.1.15,2013-02-14 07:25:00,
2013-02-14 02:30:00,32.9,31.1,29.93,West,279,0.0,1.0,93,0.00,,,0.00,Wunderground v.1.15,2013-02-14 07:30:00,
2013-02-14 02:35:00,32.9,30.8,29.93,West,279,0.0,1.0,92,0.00,,,0.00,Wunderground v.1.15,2013-02-14 07:35:00,
2013-02-14 02:40:00,32.9,30.8,29.93,West,279,0.0,0.0,92,0.00,,,0.00,Wunderground v.1.15,2013-02-14 07:40:00,
2013-02-14 02:45:00,32.9,30.8,29.93,West,279,0.0,0.0,92,0.00,,,0.00,Wunderground v.1.15,2013-02-14 07:45:00,
2013-02-14 02:50:00,32.9,30.8,29.93,West,279,0.0,0.0,92,0.00,,,0.00,Wunderground v.1.15,2013-02-14 07:50:00,
2013-02-14 02:55:00,33.0,30.9,29.93,West,279,0.0,0.0,92,0.00,,,0.00,Wunderground v.1.15,2013-02-14 07:55:00,
2013-02-14 03:00:00,33.0,31.2,29.93,West,279,0.0,0.0,93,0.00,,,0.00,Wunderground v.1.15,2013-02-14 08:00:00,
2013-02-14 03:05:00,32.9,30.8,29.93,West,279,0.0,0.0,92,0.00,,,0.00,Wunderground v.1.15,2013-02-14 08:05:00,
2013-02-14 03:10:00,32.9,30.8,29.94,West,279,0.0,0.0,92,0.00,,,0.00,Wunderground v.1.15,2013-02-14 08:10:00,
2013-02-14 03:15:00,32.9,30.6,29.94,West,279,0.0,0.0,91,0.00,,,0.00,Wunderground v.1.15,2013-02-14 08:15:00,
2013-02-14 03:20:00,32.9,30.8,29.94,West,279,0.0,0.0,92,0.00,,,0.00,Wunderground v.1.15,2013-02-14 08:20:00,
2013-02-14 03:25:00,32.9,30.8,29.94,West,279,0.0,0.0,92,0.00,,,0.00,Wunderground v.1.15,2013-02-14 08:25:00,
2013-02-14 03:30:00,32.9,30.6,29.94,West,279,0.0,0.0,91,0.00,,,0.00,Wunderground v.1.15,2013-02-14 08:30:00,
2013-02-14 03:35:00,32.9,30.6,29.94,West,279,0.0,0.0,91,0.00,,,0.00,Wunderground v.1.15,2013-02-14 08:35:00,
2013-02-14 03:40:00,32.8,30.5,29.94,West,279,0.0,0.0,91,0.00,,,0.00,Wunderground v.1.15,2013-02-14 08:40:00,
2013-02-14 03:45:00,32.8,30.5,29.94,West,279,0.0,0.0,91,0.00,,,0.00,Wunderground v.1.15,2013-02-14 08:45:00,
2013-02-14 03:50:00,32.8,30.5,29.94,West,279,0.0,0.0,91,0.00,,,0.00,Wunderground v.1.15,2013-02-14 08:50:00,
2013-02-14 03:55:00,32.8,30.2,29.94,West,279,0.0,0.0,90,0.00,,,0.00,Wunderground v.1.15,2013-02-14 08:55:00,
2013-02-14 04:00:00,32.7,30.4,29.94,West,279,0.0,0.0,91,0.00,,,0.00,Wunderground v.1.15,2013-02-14 09:00:00,
2013-02-14 04:06:00,32.7,30.1,29.94,West,279,0.0,0.0,90,0.00,,,0.00,Wunderground v.1.15,2013-02-14 09:06:00,
2013-02-14 04:10:00,32.6,30.0,29.95,West,279,0.0,0.0,90,0.00,,,0.00,Wunderground v.1.15,2013-02-14 09:10:00,
2013-02-14 04:15:00,32.5,29.9,29.95,West,279,0.0,0.0,90,0.00,,,0.00,Wunderground v.1.15,2013-02-14 09:15:00,
2013-02-14 04:20:00,32.5,29.6,29.95,West,279,0.0,0.0,89,0.00,,,0.00,Wunderground v.1.15,2013-02-14 09:20:00,
2013-02-14 04:25:00,32.5,29.6,29.95,West,279,0.0,0.0,89,0.00,,,0.00,Wunderground v.1.15,2013-02-14 09:25:00,
2013-02-14 04:30:00,32.4,29.5,29.95,West,279,0.0,0.0,89,0.00,,,0.00,Wunderground v.1.15,2013-02-14 09:30:00,
2013-02-14 04:35:00,32.4,29.5,29.95,West,279,0.0,0.0,89,0.00,,,0.00,Wunderground v.1.15,2013-02-14 09:35:00,
2013-02-14 04:40:00,32.4,29.8,29.95,West,279,0.0,0.0,90,0.00,,,0.00,Wunderground v.1.15,2013-02-14 09:40:00,
2013-02-14 04:45:00,32.3,29.4,29.95,West,279,0.0,0.0,89,0.00,,,0.00,Wunderground v.1.15,2013-02-14 09:45:00,
2013-02-14 04:50:00,32.2,29.3,29.95,West,279,0.0,0.0,89,0.00,,,0.00,Wunderground v.1.15,2013-02-14 09:50:00,
2013-02-14 04:55:00,32.1,29.2,29.95,West,279,0.0,0.0,89,0.00,,,0.00,Wunderground v.1.15,2013-02-14 09:55:00,
2013-02-14 05:00:00,31.9,29.0,29.95,West,279,0.0,1.0,89,0.00,,,0.00,Wunderground v.1.15,2013-02-14 10:00:00,
2013-02-14 05:05:00,31.8,28.9,29.95,West,279,0.0,1.0,89,0.00,,,0.00,Wunderground v.1.15,2013-02-14 10:05:00,
2013-02-14 05:10:00,31.7,28.8,29.95,West,279,0.0,0.0,89,0.00,,,0.00,Wunderground v.1.15,2013-02-14 10:10:00,
2013-02-14 05:15:00,31.6,29.0,29.95,West,279,0.0,0.0,90,0.00,,,0.00,Wunderground v.1.15,2013-02-14 10:15:00,
2013-02-14 05:20:00,31.5,28.9,29.95,West,279,0.0,0.0,90,0.00,,,0.00,Wunderground v.1.15,2013-02-14 10:20:00,
2013-02-14 05:25:00,31.5,28.9,29.95,West,279,0.0,0.0,90,0.00,,,0.00,Wunderground v.1.15,2013-02-14 10:25:00,
2013-02-14 05:30:00,31.4,28.8,29.95,West,279,0.0,0.0,90,0.00,,,0.00,Wunderground v.1.15,2013-02-14 10:30:00,
2013-02-14 05:40:00,31.4,29.1,29.95,West,279,0.0,0.0,91,0.00,,,0.00,Wunderground v.1.15,2013-02-14 10:40:00,
2013-02-14 05:45:00,31.4,29.1,29.95,West,279,0.0,0.0,91,0.00,,,0.00,Wunderground v.1.15,2013-02-14 10:45:00,
2013-02-14 05:50:00,31.5,29.2,29.95,West,279,0.0,0.0,91,0.00,,,0.00,Wunderground v.1.15,2013-02-14 10:50:00,
2013-02-14 05:55:00,31.5,29.2,29.95,West,279,0.0,0.0,91,0.00,,,0.00,Wunderground v.1.15,2013-02-14 10:55:00,
2013-02-14 06:00:00,31.6,29.3,29.95,West,279,0.0,0.0,91,0.00,,,0.00,Wunderground v.1.15,2013-02-14 11:00:00,
2013-02-14 06:05:00,31.7,29.4,29.95,West,279,0.0,0.0,91,0.00,,,0.00,Wunderground v.1.15,2013-02-14 11:05:00,
2013-02-14 06:10:00,31.7,29.4,29.96,West,279,0.0,0.0,91,0.00,,,0.00,Wunderground v.1.15,2013-02-14 11:10:00,
2013-02-14 06:15:00,31.7,29.4,29.96,West,276,0.0,0.0,91,0.00,,,0.00,Wunderground v.1.15,2013-02-14 11:15:00,
2013-02-14 06:20:00,31.7,29.1,29.96,West,277,0.0,0.0,90,0.00,,,0.00,Wunderground v.1.15,2013-02-14 11:20:00,
2013-02-14 06:25:00,31.7,29.1,29.96,West,276,0.0,0.0,90,0.00,,,0.00,Wunderground v.1.15,2013-02-14 11:25:00,
2013-02-14 06:30:00,31.8,29.5,29.97,West,277,0.0,0.0,91,0.00,,,0.00,Wunderground v.1.15,2013-02-14 11:30:00,
2013-02-14 06:35:00,31.8,29.5,29.97,West,277,0.0,0.0,91,0.00,,,0.00,Wunderground v.1.15,2013-02-14 11:35:00,
2013-02-14 06:40:00,31.8,29.5,29.97,West,276,0.0,0.0,91,0.00,,,0.00,Wunderground v.1.15,2013-02-14 11:40:00,
2013-02-14 06:45:00,31.8,29.5,29.97,West,277,0.0,0.0,91,0.00,,,0.00,Wunderground v.1.15,2013-02-14 11:45:00,
2013-02-14 06:50:00,31.8,29.5,29.98,West,277,0.0,0.0,91,0.00,,,0.00,Wunderground v.1.15,2013-02-14 11:50:00,
2013-02-14 06:55:00,31.8,29.5,29.98,West,277,0.0,0.0,91,0.00,,,0.00,Wunderground v.1.15,2013-02-14 11:55:00,
2013-02-14 07:00:00,31.8,29.2,29.98,West,277,0.0,0.0,90,0.00,,,0.00,Wunderground v.1.15,2013-02-14 12:00:00,
2013-02-14 07:06:00,31.9,29.6,29.99,West,277,0.0,0.0,91,0.00,,,0.00,Wunderground v.1.15,2013-02-14 12:06:00,
2013-02-14 07:10:00,31.9,29.6,30.00,West,277,0.0,0.0,91,0.00,,,0.00,Wunderground v.1.15,2013-02-14 12:10:00,
2013-02-14 07:15:00,31.9,29.6,30.00,West,277,0.0,0.0,91,0.00,,,0.00,Wunderground v.1.15,2013-02-14 12:15:00,
2013-02-14 07:20:00,31.9,29.6,30.00,West,276,0.0,0.0,91,0.00,,,0.00,Wunderground v.1.15,2013-02-14 12:20:00,
2013-02-14 07:25:00,31.9,29.3,30.00,West,277,0.0,0.0,90,0.00,,,0.00,Wunderground v.1.15,2013-02-14 12:25:00,
2013-02-14 07:30:00,31.9,29.3,30.00,West,277,0.0,0.0,90,0.00,,,0.00,Wunderground v.1.15,2013-02-14 12:30:00,
2013-02-14 07:35:00,31.9,29.3,30.00,West,277,0.0,0.0,90,0.00,,,0.00,Wunderground v.1.15,2013-02-14 12:35:00,
2013-02-14 07:40:00,31.9,29.3,30.00,West,277,0.0,0.0,90,0.00,,,0.00,Wunderground v.1.15,2013-02-14 12:40:00,
2013-02-14 07:45:00,31.9,29.3,30.01,West,276,0.0,0.0,90,0.00,,,0.00,Wunderground v.1.15,2013-02-14 12:45:00,
2013-02-14 07:50:00,32.0,29.4,30.01,West,277,0.0,0.0,90,0.00,,,0.00,Wunderground v.1.15,2013-02-14 12:50:00,
2013-02-14 07:55:00,32.0,29.4,30.01,West,277,0.0,0.0,90,0.00,,,0.00,Wunderground v.1.15,2013-02-14 12:55:00,
2013-02-14 08:00:00,32.1,29.5,30.02,West,276,0.0,0.0,90,0.00,,,0.00,Wunderground v.1.15,2013-02-14 13:00:00,
2013-02-14 08:06:00,32.1,29.5,30.01,West,276,0.0,0.0,90,0.00,,,0.00,Wunderground v.1.15,2013-02-14 13:06:00,
2013-02-14 08:10:00,32.2,29.3,30.01,West,276,0.0,0.0,89,0.00,,,0.00,Wunderground v.1.15,2013-02-14 13:10:00,
2013-02-14 08:15:00,32.2,29.3,30.02,West,277,0.0,0.0,89,0.00,,,0.00,Wunderground v.1.15,2013-02-14 13:15:00,
2013-02-14 08:20:00,32.3,29.4,30.02,West,276,0.0,0.0,89,0.00,,,0.00,Wunderground v.1.15,2013-02-14 13:20:00,
2013-02-14 08:25:00,32.5,29.3,30.03,West,276,0.0,0.0,88,0.00,,,0.00,Wunderground v.1.15,2013-02-14 13:25:00,
2013-02-14 08:30:00,32.7,29.8,30.03,West,277,0.0,0.0,89,0.00,,,0.00,Wunderground v.1.15,2013-02-14 13:30:00,
2013-02-14 08:35:00,32.9,29.7,30.04,West,277,0.0,0.0,88,0.00,,,0.00,Wunderground v.1.15,2013-02-14 13:35:00,
2013-02-14 08:40:00,33.0,29.6,30.04,West,277,0.0,0.0,87,0.00,,,0.00,Wunderground v.1.15,2013-02-14 13:40:00,
2013-02-14 08:45:00,33.2,30.0,30.04,West,277,0.0,0.0,88,0.00,,,0.00,Wunderground v.1.15,2013-02-14 13:45:00,
2013-02-14 08:50:00,33.4,30.2,30.04,West,276,0.0,0.0,88,0.00,,,0.00,Wunderground v.1.15,2013-02-14 13:50:00,
2013-02-14 08:55:00,33.6,30.1,30.04,West,277,0.0,0.0,87,0.00,,,0.00,Wunderground v.1.15,2013-02-14 13:55:00,
2013-02-14 09:00:00,33.8,30.3,30.04,West,277,0.0,0.0,87,0.00,,,0.00,Wunderground v.1.15,2013-02-14 14:00:00,
2013-02-14 09:05:00,33.9,29.6,30.03,West,276,0.0,0.0,84,0.00,,,0.00,Wunderground v.1.15,2013-02-14 14:05:00,
2013-02-14 09:10:00,34.2,30.4,30.04,West,277,0.0,0.0,86,0.00,,,0.00,Wunderground v.1.15,2013-02-14 14:10:00,
2013-02-14 09:15:00,34.7,31.2,30.04,West,276,0.0,0.0,87,0.00,,,0.00,Wunderground v.1.15,2013-02-14 14:15:00,
2013-02-14 09:20:00,35.3,31.2,30.04,West,271,0.0,1.0,85,0.00,,,0.00,Wunderground v.1.15,2013-02-14 14:20:00,
2013-02-14 09:25:00,35.8,32.6,30.04,WSW,253,0.0,1.0,88,0.00,,,0.00,Wunderground v.1.15,2013-02-14 14:25:00,
2013-02-14 09:30:00,36.4,32.9,30.05,WSW,253,0.0,0.0,87,0.00,,,0.00,Wunderground v.1.15,2013-02-14 14:30:00,
2013-02-14 09:35:00,36.6,31.9,30.05,WSW,254,0.0,2.0,83,0.00,,,0.00,Wunderground v.1.15,2013-02-14 14:35:00,
2013-02-14 09:40:00,36.0,31.3,30.05,WSW,257,1.0,1.0,83,0.00,,,0.00,Wunderground v.1.15,2013-02-14 14:40:00,
2013-02-14 09:45:00,35.5,30.5,30.04,WSW,258,2.0,2.0,82,0.00,,,0.00,Wunderground v.1.15,2013-02-14 14:45:00,
2013-02-14 09:50:00,35.5,31.4,30.04,WSW,258,1.0,1.0,85,0.00,,,0.00,Wunderground v.1.15,2013-02-14 14:50:00,
2013-02-14 09:55:00,35.7,30.7,30.04,West,259,1.0,1.0,82,0.00,,,0.00,Wunderground v.1.15,2013-02-14 14:55:00,
2013-02-14 10:00:00,36.0,31.0,30.03,West,259,1.0,1.0,82,0.00,,,0.00,Wunderground v.1.15,2013-02-14 15:00:00,
2013-02-14 10:06:00,36.3,31.9,30.03,WSW,256,1.0,1.0,84,0.00,,,0.00,Wunderground v.1.15,2013-02-14 15:06:00,
2013-02-14 10:10:00,37.1,33.3,30.03,WSW,257,1.0,1.0,86,0.00,,,0.00,Wunderground v.1.15,2013-02-14 15:10:00,
2013-02-14 10:15:00,37.9,33.2,30.03,WSW,257,1.0,1.0,83,0.00,,,0.00,Wunderground v.1.15,2013-02-14 15:15:00,
2013-02-14 10:20:00,38.2,33.5,30.03,West,260,1.0,1.0,83,0.00,,,0.00,Wunderground v.1.15,2013-02-14 15:20:00,
2013-02-14 10:25:00,38.9,34.5,30.04,West,261,1.0,1.0,84,0.00,,,0.00,Wunderground v.1.15,2013-02-14 15:25:00,
2013-02-14 10:30:00,39.7,35.3,30.03,West,261,0.0,0.0,84,0.00,,,0.00,Wunderground v.1.15,2013-02-14 15:30:00,
2013-02-14 10:35:00,40.3,35.5,30.03,West,264,0.0,2.0,83,0.00,,,0.00,Wunderground v.1.15,2013-02-14 15:35:00,
2013-02-14 10:40:00,40.1,33.8,30.02,West,265,1.0,1.0,78,0.00,,,0.00,Wunderground v.1.15,2013-02-14 15:40:00,
2013-02-14 10:45:00,39.9,33.6,30.02,West,263,2.0,2.0,78,0.00,,,0.00,Wunderground v.1.15,2013-02-14 15:45:00,
2013-02-14 10:50:00,39.7,34.7,30.02,West,275,2.0,2.0,82,0.00,,,0.00,Wunderground v.1.15,2013-02-14 15:50:00,
2013-02-14 10:55:00,39.9,33.3,30.03,West,275,2.0,3.0,77,0.00,,,0.00,Wunderground v.1.15,2013-02-14 15:55:00,
2013-02-14 11:05:00,40.1,32.8,30.04,West,275,1.0,3.0,75,0.00,,,0.00,Wunderground v.1.15,2013-02-14 16:05:00,
2013-02-14 11:10:00,40.4,35.0,30.03,West,275,1.0,2.0,81,0.00,,,0.00,Wunderground v.1.15,2013-02-14 16:10:00,
2013-02-14 11:15:00,40.6,33.6,30.03,West,271,2.0,2.0,76,0.00,,,0.00,Wunderground v.1.15,2013-02-14 16:15:00,
2013-02-14 11:20:00,41.0,34.7,30.04,West,270,2.0,2.0,78,0.00,,,0.00,Wunderground v.1.15,2013-02-14 16:20:00,
2013-02-14 11:25:00,41.3,34.3,30.04,West,277,2.0,2.0,76,0.00,,,0.00,Wunderground v.1.15,2013-02-14 16:25:00,
2013-02-14 11:30:00,41.7,34.4,30.04,West,277,1.0,1.0,75,0.00,,,0.00,Wunderground v.1.15,2013-02-14 16:30:00,
2013-02-14 11:35:00,42.4,34.7,30.04,West,267,1.0,1.0,74,0.00,,,0.00,Wunderground v.1.15,2013-02-14 16:35:00,
2013-02-14 11:45:00,42.7,33.6,30.05,West,265,2.0,3.0,70,0.00,,,0.00,Wunderground v.1.15,2013-02-14 16:45:00,
2013-02-14 11:50:00,42.5,33.8,30.05,West,276,2.0,2.0,71,0.00,,,0.00,Wunderground v.1.15,2013-02-14 16:50:00,
2013-02-14 11:55:00,42.7,35.3,30.05,West,271,2.0,5.0,75,0.00,,,0.00,Wunderground v.1.15,2013-02-14 16:55:00,
2013-02-14 12:00:00,42.8,33.7,30.04,West,275,2.0,2.0,70,0.00,,,0.00,Wunderground v.1.15,2013-02-14 17:00:00,
2013-02-14 12:06:00,42.7,31.7,30.04,West,270,2.0,2.0,65,0.00,,,0.00,Wunderground v.1.15,2013-02-14 17:06:00,
2013-02-14 12:15:00,43.5,34.0,30.03,West,271,2.0,5.0,69,0.00,,,0.00,Wunderground v.1.15,2013-02-14 17:15:00,
2013-02-14 12:20:00,44.0,32.6,30.03,West,259,2.0,2.0,64,0.00,,,0.00,Wunderground v.1.15,2013-02-14 17:20:00,
2013-02-14 12:25:00,44.9,32.7,30.03,West,259,1.0,2.0,62,0.00,,,0.00,Wunderground v.1.15,2013-02-14 17:25:00,
2013-02-14 12:30:00,45.2,33.3,30.03,WSW,248,1.0,2.0,63,0.00,,,0.00,Wunderground v.1.15,2013-02-14 17:30:00,
2013-02-14 12:35:00,45.5,33.2,30.02,WSW,248,1.0,2.0,62,0.00,,,0.00,Wunderground v.1.15,2013-02-14 17:35:00,
2013-02-14 12:40:00,46.4,32.8,30.02,WSW,251,1.0,1.0,59,0.00,,,0.00,Wunderground v.1.15,2013-02-14 17:40:00,
2013-02-14 12:45:00,46.9,30.6,30.02,SW,227,1.0,3.0,53,0.00,,,0.00,Wunderground v.1.15,2013-02-14 17:45:00,
2013-02-14 12:50:00,46.7,25.4,30.01,WSW,257,1.0,1.0,43,0.00,,,0.00,Wunderground v.1.15,2013-02-14 17:50:00,
2013-02-14 12:55:00,46.8,28.1,30.01,WSW,257,2.0,2.0,48,0.00,,,0.00,Wunderground v.1.15,2013-02-14 17:55:00,
2013-02-14 13:00:00,47.2,29.5,30.00,West,267,2.0,2.0,50,0.00,,,0.00,Wunderground v.1.15,2013-02-14 18:00:00,
2013-02-14 13:05:00,47.6,30.3,30.00,West,266,1.0,3.0,51,0.00,,,0.00,Wunderground v.1.15,2013-02-14 18:05:00,
2013-02-14 13:10:00,47.7,30.4,29.99,West,259,1.0,3.0,51,0.00,,,0.00,Wunderground v.1.15,2013-02-14 18:10:00,
2013-02-14 13:20:00,49.6,31.7,29.99,West,276,2.0,2.0,50,0.00,,,0.00,Wunderground v.1.15,2013-02-14 18:20:00,
2013-02-14 13:25:00,50.0,31.6,29.99,West,267,2.0,3.0,49,0.00,,,0.00,Wunderground v.1.15,2013-02-14 18:25:00,
2013-02-14 13:30:00,49.7,32.3,29.99,West,272,2.0,3.0,51,0.00,,,0.00,Wunderground v.1.15,2013-02-14 18:30:00,
2013-02-14 13:35:00,50.3,34.7,29.99,WNW,295,3.0,3.0,55,0.00,,,0.00,Wunderground v.1.15,2013-02-14 18:35:00,
2013-02-14 13:40:00,51.1,33.6,29.99,West,278,2.0,2.0,51,0.00,,,0.00,Wunderground v.1.15,2013-02-14 18:40:00,
2013-02-14 13:45:00,51.3,33.3,29.99,West,265,2.0,2.0,50,0.00,,,0.00,Wunderground v.1.15,2013-02-14 18:45:00,
2013-02-14 13:50:00,51.6,35.9,29.99,West,265,2.0,2.0,55,0.00,,,0.00,Wunderground v.1.15,2013-02-14 18:50:00,
2013-02-14 13:55:00,51.7,32.6,29.99,West,267,2.0,3.0,48,0.00,,,0.00,Wunderground v.1.15,2013-02-14 18:55:00,
2013-02-14 14:00:00,52.3,34.7,30.00,WSW,250,2.0,2.0,51,0.00,,,0.00,Wunderground v.1.15,2013-02-14 19:00:00,
2013-02-14 14:05:00,52.5,34.4,30.01,West,259,1.0,4.0,50,0.00,,,0.00,Wunderground v.1.15,2013-02-14 19:05:00,
2013-02-14 14:10:00,52.9,34.2,30.01,West,269,1.0,2.0,49,0.00,,,0.00,Wunderground v.1.15,2013-02-14 19:10:00,
2013-02-14 14:15:00,53.7,32.8,30.01,West,267,1.0,2.0,45,0.00,,,0.00,Wunderground v.1.15,2013-02-14 19:15:00,
2013-02-14 14:20:00,53.6,34.9,30.01,West,267,1.0,1.0,49,0.00,,,0.00,Wunderground v.1.15,2013-02-14 19:20:00,
2013-02-14 14:30:00,54.4,32.3,30.01,WSW,256,1.0,2.0,43,0.00,,,0.00,Wunderground v.1.15,2013-02-14 19:30:00,
2013-02-14 14:35:00,53.7,33.9,30.00,WSW,258,1.0,4.0,47,0.00,,,0.00,Wunderground v.1.15,2013-02-14 19:35:00,
2013-02-14 14:40:00,53.3,33.0,30.00,West,259,2.0,2.0,46,0.00,,,0.00,Wunderground v.1.15,2013-02-14 19:40:00,
2013-02-14 14:45:00,52.7,32.5,30.00,WSW,252,2.0,2.0,46,0.00,,,0.00,Wunderground v.1.15,2013-02-14 19:45:00,
2013-02-14 14:50:00,52.8,33.1,30.00,WSW,253,1.0,1.0,47,0.00,,,0.00,Wunderground v.1.15,2013-02-14 19:50:00,
2013-02-14 15:00:00,54.1,32.6,30.00,West,259,0.0,0.0,44,0.00,,,0.00,Wunderground v.1.15,2013-02-14 20:00:00,
2013-02-14 15:06:00,53.0,32.2,30.00,WSW,257,1.0,3.0,45,0.00,,,0.00,Wunderground v.1.15,2013-02-14 20:06:00,
2013-02-14 15:10:00,52.7,35.1,30.00,WSW,256,2.0,2.0,51,0.00,,,0.00,Wunderground v.1.15,2013-02-14 20:10:00,
2013-02-14 15:15:00,53.9,35.2,30.00,WSW,257,1.0,2.0,49,0.00,,,0.00,Wunderground v.1.15,2013-02-14 20:15:00,
2013-02-14 15:20:00,55.3,37.5,30.00,WSW,256,0.0,0.0,51,0.00,,,0.00,Wunderground v.1.15,2013-02-14 20:20:00,
2013-02-14 15:25:00,56.0,36.0,30.00,WSW,257,0.0,1.0,47,0.00,,,0.00,Wunderground v.1.15,2013-02-14 20:25:00,
2013-02-14 15:30:00,55.1,34.7,30.00,WNW,287,1.0,3.0,46,0.00,,,0.00,Wunderground v.1.15,2013-02-14 20:30:00,
2013-02-14 15:35:00,53.9,34.1,30.00,WSW,252,2.0,3.0,47,0.00,,,0.00,Wunderground v.1.15,2013-02-14 20:35:00,
2013-02-14 15:40:00,53.5,33.7,30.00,WSW,247,1.0,1.0,47,0.00,,,0.00,Wunderground v.1.15,2013-02-14 20:40:00,
2013-02-14 15:45:00,53.9,35.7,30.00,NNE,24,1.0,1.0,50,0.00,,,0.00,Wunderground v.1.15,2013-02-14 20:45:00,
2013-02-14 15:50:00,54.9,36.1,30.00,NNE,19,0.0,1.0,49,0.00,,,0.00,Wunderground v.1.15,2013-02-14 20:50:00,
2013-02-14 15:55:00,55.6,34.6,29.99,NNW,336,0.0,1.0,45,0.00,,,0.00,Wunderground v.1.15,2013-02-14 20:55:00,
2013-02-14 16:00:00,55.4,34.9,30.00,WSW,254,1.0,2.0,46,0.00,,,0.00,Wunderground v.1.15,2013-02-14 21:00:00,
2013-02-14 16:05:00,54.1,32.1,30.00,West,264,2.0,2.0,43,0.00,,,0.00,Wunderground v.1.15,2013-02-14 21:05:00,
2013-02-14 16:10:00,54.5,35.2,30.00,WSW,252,2.0,2.0,48,0.00,,,0.00,Wunderground v.1.15,2013-02-14 21:10:00,
2013-02-14 16:15:00,55.4,34.4,29.99,WSW,252,0.0,2.0,45,0.00,,,0.00,Wunderground v.1.15,2013-02-14 21:15:00,
2013-02-14 16:20:00,56.3,34.6,30.00,WSW,252,0.0,0.0,44,0.00,,,0.00,Wunderground v.1.15,2013-02-14 21:20:00,
2013-02-14 16:25:00,56.9,33.4,30.00,WSW,256,0.0,2.0,41,0.00,,,0.00,Wunderground v.1.15,2013-02-14 21:25:00,
2013-02-14 16:30:00,57.1,33.0,30.00,West,259,1.0,2.0,40,0.00,,,0.00,Wunderground v.1.15,2013-02-14 21:30:00,
2013-02-14 16:35:00,56.8,34.5,29.99,WNW,287,1.0,2.0,43,0.00,,,0.00,Wunderground v.1.15,2013-02-14 21:35:00,
2013-02-14 16:40:00,56.8,34.5,29.99,West,277,0.0,0.0,43,0.00,,,0.00,Wunderground v.1.15,2013-02-14 21:40:00,
2013-02-14 16:45:00,56.8,32.7,29.99,West,277,0.0,0.0,40,0.00,,,0.00,Wunderground v.1.15,2013-02-14 21:45:00,
2013-02-14 16:50:00,56.9,33.4,29.99,West,277,0.0,0.0,41,0.00,,,0.00,Wunderground v.1.15,2013-02-14 21:50:00,
2013-02-14 16:55:00,56.8,33.3,29.99,West,277,0.0,0.0,41,0.00,,,0.00,Wunderground v.1.15,2013-02-14 21:55:00,
2013-02-14 17:00:00,56.5,34.3,29.99,West,277,0.0,0.0,43,0.00,,,0.00,Wunderground v.1.15,2013-02-14 22:00:00,
2013-02-14 17:05:00,56.4,33.0,29.99,West,277,0.0,2.0,41,0.00,,,0.00,Wunderground v.1.15,2013-02-14 22:05:00,
2013-02-14 17:10:00,56.0,32.6,29.99,West,277,0.0,0.0,41,0.00,,,0.00,Wunderground v.1.15,2013-02-14 22:10:00,
2013-02-14 17:15:00,56.0,33.8,29.99,West,277,0.0,0.0,43,0.00,,,0.00,Wunderground v.1.15,2013-02-14 22:15:00,
2013-02-14 17:20:00,55.8,33.6,29.99,West,277,0.0,0.0,43,0.00,,,0.00,Wunderground v.1.15,2013-02-14 22:20:00,
2013-02-14 17:25:00,55.5,32.2,29.99,West,277,0.0,0.0,41,0.00,,,0.00,Wunderground v.1.15,2013-02-14 22:25:00,
2013-02-14 17:30:00,55.1,33.6,29.99,West,277,0.0,0.0,44,0.00,,,0.00,Wunderground v.1.15,2013-02-14 22:30:00,
2013-02-14 17:35:00,54.6,33.7,29.99,West,277,0.0,0.0,45,0.00,,,0.00,Wunderground v.1.15,2013-02-14 22:35:00,
2013-02-14 17:40:00,54.2,32.7,29.99,West,277,0.0,0.0,44,0.00,,,0.00,Wunderground v.1.15,2013-02-14 22:40:00,
2013-02-14 17:45:00,54.0,32.6,29.99,West,277,0.0,0.0,44,0.00,,,0.00,Wunderground v.1.15,2013-02-14 22:45:00,
2013-02-14 17:55:00,53.6,32.8,30.00,West,277,0.0,0.0,45,0.00,,,0.00,Wunderground v.1.15,2013-02-14 22:55:00,
2013-02-14 18:00:00,53.0,32.8,30.00,West,277,0.0,0.0,46,0.00,,,0.00,Wunderground v.1.15,2013-02-14 23:00:00,
2013-02-14 18:06:00,52.1,34.0,30.00,West,277,0.0,0.0,50,0.00,,,0.00,Wunderground v.1.15,2013-02-14 23:06:00,
2013-02-14 18:10:00,51.3,33.3,29.99,West,277,0.0,0.0,50,0.00,,,0.00,Wunderground v.1.15,2013-02-14 23:10:00,
2013-02-14 18:15:00,50.5,33.5,29.99,West,277,0.0,0.0,52,0.00,,,0.00,Wunderground v.1.15,2013-02-14 23:15:00,
2013-02-14 18:20:00,49.5,32.1,29.99,West,277,0.0,0.0,51,0.00,,,0.00,Wunderground v.1.15,2013-02-14 23:20:00,
2013-02-14 18:25:00,48.4,31.6,29.98,West,277,0.0,0.0,52,0.00,,,0.00,Wunderground v.1.15,2013-02-14 23:25:00,
2013-02-14 18:30:00,47.4,31.6,29.99,West,277,0.0,0.0,54,0.00,,,0.00,Wunderground v.1.15,2013-02-14 23:30:00,
2013-02-14 18:35:00,46.5,32.1,29.99,West,277,0.0,0.0,57,0.00,,,0.00,Wunderground v.1.15,2013-02-14 23:35:00,
2013-02-14 18:45:00,45.2,31.7,30.00,West,277,0.0,0.0,59,0.00,,,0.00,Wunderground v.1.15,2013-02-14 23:45:00,
2013-02-14 18:50:00,44.6,30.7,30.00,West,277,0.0,0.0,58,0.00,,,0.00,Wunderground v.1.15,2013-02-14 23:50:00,
2013-02-14 18:55:00,44.0,31.4,30.00,West,277,0.0,0.0,61,0.00,,,0.00,Wunderground v.1.15,2013-02-14 23:55:00,
2013-02-14 19:05:00,43.0,30.5,30.00,West,277,0.0,0.0,61,0.00,,,0.00,Wunderground v.1.15,2013-02-15 00:05:00,
2013-02-14 19:10:00,42.6,29.7,30.01,West,277,0.0,0.0,60,0.00,,,0.00,Wunderground v.1.15,2013-02-15 00:10:00,
2013-02-14 19:15:00,42.2,29.7,30.01,West,277,0.0,0.0,61,0.00,,,0.00,Wunderground v.1.15,2013-02-15 00:15:00,
2013-02-14 19:20:00,41.9,29.4,30.01,West,277,0.0,0.0,61,0.00,,,0.00,Wunderground v.1.15,2013-02-15 00:20:00,
2013-02-14 19:25:00,41.7,29.2,30.02,West,277,0.0,0.0,61,0.00,,,0.00,Wunderground v.1.15,2013-02-15 00:25:00,
2013-02-14 19:30:00,41.5,29.0,30.02,West,277,0.0,0.0,61,0.00,,,0.00,Wunderground v.1.15,2013-02-15 00:30:00,
2013-02-14 19:35:00,41.5,29.4,30.02,West,277,0.0,0.0,62,0.00,,,0.00,Wunderground v.1.15,2013-02-15 00:35:00,
2013-02-14 19:45:00,41.2,29.5,30.02,West,277,0.0,0.0,63,0.00,,,0.00,Wunderground v.1.15,2013-02-15 00:45:00,
2013-02-14 19:50:00,41.1,29.5,30.02,West,277,0.0,0.0,63,0.00,,,0.00,Wunderground v.1.15,2013-02-15 00:50:00,
2013-02-14 19:55:00,41.1,29.5,30.01,West,277,0.0,0.0,63,0.00,,,0.00,Wunderground v.1.15,2013-02-15 00:55:00,
2013-02-14 20:00:00,41.1,29.1,30.01,West,277,0.0,0.0,62,0.00,,,0.00,Wunderground v.1.15,2013-02-15 01:00:00,
2013-02-14 20:06:00,41.0,29.4,30.01,West,277,0.0,0.0,63,0.00,,,0.00,Wunderground v.1.15,2013-02-15 01:06:00,
2013-02-14 20:10:00,41.0,30.5,30.02,West,277,0.0,0.0,66,0.00,,,0.00,Wunderground v.1.15,2013-02-15 01:10:00,
2013-02-14 20:15:00,41.0,29.4,30.01,West,277,0.0,0.0,63,0.00,,,0.00,Wunderground v.1.15,2013-02-15 01:15:00,
2013-02-14 20:20:00,41.0,29.4,30.02,West,277,0.0,0.0,63,0.00,,,0.00,Wunderground v.1.15,2013-02-15 01:20:00,
2013-02-14 20:25:00,40.9,29.7,30.02,West,277,0.0,0.0,64,0.00,,,0.00,Wunderground v.1.15,2013-02-15 01:25:00,
2013-02-14 20:35:00,40.6,29.7,30.02,West,277,0.0,0.0,65,0.00,,,0.00,Wunderground v.1.15,2013-02-15 01:35:00,
2013-02-14 20:40:00,40.6,29.7,30.02,West,277,0.0,0.0,65,0.00,,,0.00,Wunderground v.1.15,2013-02-15 01:40:00,
2013-02-14 20:45:00,40.5,29.7,30.02,West,277,0.0,0.0,65,0.00,,,0.00,Wunderground v.1.15,2013-02-15 01:45:00,
2013-02-14 20:50:00,40.4,29.6,30.02,West,277,0.0,0.0,65,0.00,,,0.00,Wunderground v.1.15,2013-02-15 01:50:00,
2013-02-14 20:55:00,40.3,29.5,30.02,West,277,0.0,0.0,65,0.00,,,0.00,Wunderground v.1.15,2013-02-15 01:55:00,
2013-02-14 21:05:00,40.2,29.7,30.02,West,277,0.0,0.0,66,0.00,,,0.00,Wunderground v.1.15,2013-02-15 02:05:00,
2013-02-14 21:15:00,40.2,29.7,30.02,West,277,0.0,0.0,66,0.00,,,0.00,Wunderground v.1.15,2013-02-15 02:15:00,
2013-02-14 21:20:00,40.0,29.9,30.02,West,277,0.0,0.0,67,0.00,,,0.00,Wunderground v.1.15,2013-02-15 02:20:00,
2013-02-14 21:25:00,39.8,30.1,30.02,West,277,0.0,0.0,68,0.00,,,0.00,Wunderground v.1.15,2013-02-15 02:25:00,
2013-02-14 21:30:00,39.5,29.8,30.02,West,277,0.0,0.0,68,0.00,,,0.00,Wunderground v.1.15,2013-02-15 02:30:00,
2013-02-14 21:35:00,39.2,29.5,30.03,West,277,0.0,0.0,68,0.00,,,0.00,Wunderground v.1.15,2013-02-15 02:35:00,
2013-02-14 21:40:00,38.9,29.6,30.02,West,277,0.0,0.0,69,0.00,,,0.00,Wunderground v.1.15,2013-02-15 02:40:00,
2013-02-14 21:45:00,38.9,29.6,30.03,West,277,0.0,0.0,69,0.00,,,0.00,Wunderground v.1.15,2013-02-15 02:45:00,
2013-02-14 21:50:00,38.9,29.6,30.03,West,277,0.0,0.0,69,0.00,,,0.00,Wunderground v.1.15,2013-02-15 02:50:00,
2013-02-14 21:55:00,38.9,29.6,30.03,West,277,0.0,0.0,69,0.00,,,0.00,Wunderground v.1.15,2013-02-15 02:55:00,
2013-02-14 22:00:00,38.9,29.6,30.03,West,277,0.0,0.0,69,0.00,,,0.00,Wunderground v.1.15,2013-02-15 03:00:00,
2013-02-14 22:05:00,38.6,30.0,30.03,West,277,0.0,0.0,71,0.00,,,0.00,Wunderground v.1.15,2013-02-15 03:05:00,
2013-02-14 22:10:00,38.1,29.5,30.03,West,277,0.0,0.0,71,0.00,,,0.00,Wunderground v.1.15,2013-02-15 03:10:00,
2013-02-14 22:15:00,37.9,29.7,30.03,West,277,0.0,0.0,72,0.00,,,0.00,Wunderground v.1.15,2013-02-15 03:15:00,
2013-02-14 22:25:00,37.7,29.5,30.03,West,277,0.0,0.0,72,0.00,,,0.00,Wunderground v.1.15,2013-02-15 03:25:00,
2013-02-14 22:30:00,37.8,29.6,30.03,West,277,0.0,0.0,72,0.00,,,0.00,Wunderground v.1.15,2013-02-15 03:30:00,
2013-02-14 22:35:00,37.8,29.6,30.03,West,277,0.0,0.0,72,0.00,,,0.00,Wunderground v.1.15,2013-02-15 03:35:00,
2013-02-14 22:40:00,37.8,29.6,30.03,West,277,0.0,0.0,72,0.00,,,0.00,Wunderground v.1.15,2013-02-15 03:40:00,
2013-02-14 22:45:00,37.8,29.2,30.03,West,277,0.0,0.0,71,0.00,,,0.00,Wunderground v.1.15,2013-02-15 03:45:00,
2013-02-14 22:55:00,37.9,29.3,30.03,West,277,0.0,0.0,71,0.00,,,0.00,Wunderground v.1.15,2013-02-15 03:55:00,
2013-02-14 23:00:00,37.9,29.3,30.03,West,277,0.0,0.0,71,0.00,,,0.00,Wunderground v.1.15,2013-02-15 04:00:00,
2013-02-14 23:06:00,37.9,29.7,30.03,West,277,0.0,0.0,72,0.00,,,0.00,Wunderground v.1.15,2013-02-15 04:06:00,
2013-02-14 23:10:00,37.7,29.5,30.03,West,277,0.0,0.0,72,0.00,,,0.00,Wunderground v.1.15,2013-02-15 04:10:00,
2013-02-14 23:15:00,37.7,29.8,30.03,West,277,0.0,0.0,73,0.00,,,0.00,Wunderground v.1.15,2013-02-15 04:15:00,
2013-02-14 23:20:00,37.6,29.7,30.03,West,277,0.0,0.0,73,0.00,,,0.00,Wunderground v.1.15,2013-02-15 04:20:00,
2013-02-14 23:25:00,37.4,29.9,30.03,West,277,0.0,0.0,74,0.00,,,0.00,Wunderground v.1.15,2013-02-15 04:25:00,
2013-02-14 23:30:00,37.1,29.2,30.03,West,277,0.0,0.0,73,0.00,,,0.00,Wunderground v.1.15,2013-02-15 04:30:00,
2013-02-14 23:35:00,36.9,29.4,30.03,West,277,0.0,0.0,74,0.00,,,0.00,Wunderground v.1.15,2013-02-15 04:35:00,
2013-02-14 23:40:00,36.6,29.4,30.03,West,277,0.0,0.0,75,0.00,,,0.00,Wunderground v.1.15,2013-02-15 04:40:00,
2013-02-14 23:45:00,36.4,29.2,30.04,West,277,0.0,0.0,75,0.00,,,0.00,Wunderground v.1.15,2013-02-15 04:45:00,
2013-02-14 23:50:00,36.2,29.4,30.04,West,277,0.0,0.0,76,0.00,,,0.00,Wunderground v.1.15,2013-02-15 04:50:00,
2013-02-14 23:55:00,36.1,29.6,30.04,West,277,0.0,0.0,77,0.00,,,0.00,Wunderground v.1.15,2013-02-15 04:55:00,